Location: *
(33.8649°S, 62.1526°E)
Time: 09:41:16
(UTC+00:00)

Cosmos 44 Rocket - Pass Details

Date: 11 December 2021
Orbit: 648 x 741 km, 65.1° (Epoch: 23 January)

Event Time Altitude Azimuth Distance (km) Brightness Sun altitude
Rises 15:38:01 0° 340° (NNW) 2,954 6.4 -8.3°
Reaches altitude 10° 15:40:18 10° 343° (NNW) 2,049 5.5 -8.7°
Maximum altitude 15:44:53 65° 65° (ENE) 722 3.1 -9.4°
Drops below altitude 10° 15:49:34 10° 145° (SE) 2,091 5.8 -10.2°
Sets 15:51:55 0° 148° (SSE) 3,019 6.7 -10.6°
